Location: Clarion
(42.7316°N, 93.7330°W)
Time: 09:27:22
(UTC+00:00)

Cosmos 1782 Rocket - Pass Details

Date: 22 April 2026
Orbit: 601 x 624 km, 82.5° (Epoch: 16 May)

Event Time Altitude Azimuth Distance (km) Brightness Sun altitude
Exits shadow 03:12:06 59° 103° (ESE) 698 3.5 -21.2°
Maximum altitude 03:12:13 59° 95° (E) 696 3.5 -21.2°
Drops below altitude 10° 03:16:27 10° 16° (NNE) 1,952 6.4 -21.8°
Sets 03:18:42 0° 12° (NNE) 2,861 7.4 -22.1°
